Home > Weather > Hereford > Past weeks

Flag for USA Past Weather in Hereford, Texas, USA — Yesterday and Last 2 Weeks

Now
73 °F

Scattered clouds.


Feels Like: 77 °F
Forecast: 67 / 85 °F
Wind: 18 mph from West

Location: Clovis Municipal

Current Time: Aug 24, 2016 at 11:26:16 AM

Latest Report: Aug 24, 2016 at 10:55 AM


Visibility: 10 mi

Pressure: 30.17 "Hg (26.37 "Hg at 1167m altitude)

Humidity: 53%

Dew Point: 55 °F

Location of HerefordLocation

Past Weather in Hereford — Graph

°F

Hereford Temperature Yesterday

Maximum temperature yesterday: 93 °F (at 4:55 PM)
Minimum temperature yesterday: 63 °F (at 4:15 AM)
Average temperature yesterday: 75 °F

High & Low Weather Summary for the Past Weeks

 TemperatureHumidityPressure
High93 °F (Aug 11, 5:15 PM)94% (Aug 23, 6:55 AM)30.27 "Hg (Aug 23, 6:55 AM)
Low54 °F (Aug 15, 6:35 AM)14% (Aug 17, 3:55 PM)29.91 "Hg (Aug 19, 5:15 PM)
Average73 °F55%30.13 "Hg
* Reported Aug 9 11:35 AM — Aug 24 10:15 AM, Hereford, Weather by CustomWeather, © 2016

Note: Actual official high and low records may vary slightly from our data, if they occured in-between our weather recording intervals... More about our weather records

Advertising

Hereford Weather History for the Previous 24 Hours

Scroll right to see more
 ConditionsComfort  
Time TempWeatherWind HumidityBarometerVisibility
10:15 AM
Wed, Aug 24
70 °FScattered clouds.15 mph60%30.16 "Hg10 mi
9:55 AM66 °FPartly sunny.17 mph68%30.16 "Hg10 mi
9:35 AM66 °FPassing clouds.14 mph73%30.16 "Hg10 mi
9:15 AM66 °FSunny.14 mph68%30.16 "Hg10 mi
8:55 AM64 °FSunny.9 mph73%30.16 "Hg10 mi
8:35 AM64 °FSunny.8 mph73%30.16 "Hg10 mi
8:15 AM63 °FClear.5 mph77%30.16 "Hg10 mi
7:55 AM63 °FPassing clouds.8 mph77%30.16 "Hg10 mi
7:35 AM64 °FPassing clouds.10 mph73%30.16 "Hg10 mi
7:15 AM64 °FPassing clouds.12 mph68%30.16 "Hg10 mi
6:55 AM64 °FPassing clouds.14 mph68%30.16 "Hg10 mi
6:35 AM64 °FPassing clouds.7 mph68%30.15 "Hg10 mi
6:15 AM64 °FPassing clouds.6 mph68%30.14 "Hg10 mi
5:55 AM64 °FClear.8 mph68%30.14 "Hg10 mi
5:35 AM64 °FClear.8 mph68%30.13 "Hg10 mi
5:15 AM64 °FPassing clouds.7 mph68%30.13 "Hg10 mi
4:55 AM64 °FPassing clouds.9 mph68%30.13 "Hg10 mi
4:35 AM64 °FClear.10 mph68%30.13 "Hg10 mi
4:15 AM66 °FClear.13 mph60%30.13 "Hg10 mi
3:55 AM66 °FClear.14 mph60%30.12 "Hg10 mi
3:35 AM68 °FClear.12 mph60%30.13 "Hg10 mi
3:15 AM68 °FPassing clouds.10 mph64%30.13 "Hg10 mi
2:55 AM70 °FPassing clouds.9 mph60%30.13 "Hg10 mi
2:35 AM70 °FPassing clouds.8 mph60%30.14 "Hg10 mi
2:15 AM70 °FClear.6 mph57%30.14 "Hg10 mi
1:55 AM70 °FPassing clouds.7 mph57%30.13 "Hg10 mi
1:35 AM72 °FPassing clouds.13 mph53%30.13 "Hg10 mi
1:15 AM72 °FClear.14 mph53%30.14 "Hg10 mi
12:55 AM72 °FClear.18 mph53%30.12 "Hg10 mi
12:35 AM73 °FClear.18 mph50%30.12 "Hg10 mi
12:15 AM72 °FClear.14 mph57%30.13 "Hg10 mi
11:55 PM
Tue, Aug 23
72 °FClear.9 mph61%30.12 "Hg10 mi
11:35 PM72 °FClear.9 mph57%30.11 "Hg10 mi
11:15 PM72 °FClear.8 mph57%30.11 "Hg10 mi
10:55 PM72 °FClear.9 mph57%30.10 "Hg10 mi
10:35 PM73 °FClear.10 mph50%30.10 "Hg10 mi
10:15 PM73 °FClear.12 mph53%30.10 "Hg10 mi
9:55 PM73 °FClear.14 mph53%30.10 "Hg10 mi
9:35 PM73 °FClear.15 mph57%30.09 "Hg10 mi
9:15 PM75 °FSunny.16 mph54%30.09 "Hg10 mi
8:55 PM75 °FSunny.20 mph54%30.08 "Hg10 mi
8:35 PM75 °FSunny.18 mph57%30.08 "Hg10 mi
8:15 PM79 °FSunny.21 mph51%30.06 "Hg10 mi
7:55 PM79 °FSunny.22 mph51%30.05 "Hg10 mi
7:35 PM79 °FPassing clouds.24 mph54%30.05 "Hg10 mi
7:15 PM79 °FScattered clouds.20 mph51%30.05 "Hg10 mi
6:55 PM81 °FPassing clouds.22 mph51%30.05 "Hg10 mi
6:35 PM88 °FScattered clouds.24 mph27%30.04 "Hg10 mi
6:15 PM90 °FSunny.10 mph24%30.04 "Hg10 mi
5:55 PM90 °FPartly sunny.13 mph24%30.04 "Hg10 mi
5:35 PM90 °FPartly sunny.12 mph24%30.04 "Hg10 mi
5:15 PM91 °FScattered clouds.13 mph23%30.04 "Hg10 mi
4:55 PM93 °FScattered clouds.16 mph23%30.04 "Hg10 mi
4:35 PM90 °FPartly sunny.20 mph24%30.05 "Hg10 mi
4:15 PM91 °FScattered clouds.21 mph23%30.05 "Hg10 mi
3:55 PM91 °FPassing clouds.17 mph24%30.05 "Hg10 mi
3:35 PM91 °FSunny.16 mph24%30.06 "Hg10 mi
3:15 PM91 °FSunny.13 mph26%30.07 "Hg10 mi
2:55 PM91 °FPassing clouds.17 mph26%30.08 "Hg10 mi
2:35 PM91 °FPartly sunny.18 mph28%30.09 "Hg10 mi
2:15 PM90 °FBroken clouds.14 mph31%30.10 "Hg10 mi
1:55 PM90 °FPassing clouds.16 mph33%30.11 "Hg10 mi
1:35 PM90 °FSunny.17 mph36%30.11 "Hg10 mi
1:15 PM88 °FSunny.20 mph35%30.12 "Hg10 mi
12:55 PM86 °FSunny.16 mph43%30.12 "Hg10 mi
12:35 PM84 °FSunny.17 mph45%30.13 "Hg10 mi
12:15 PM84 °FSunny.13 mph45%30.13 "Hg10 mi
11:55 AM82 °FSunny.16 mph51%30.14 "Hg10 mi
11:35 AM81 °FSunny.15 mph54%30.14 "Hg10 mi
11:15 AM79 °FSunny.14 mph61%30.14 "Hg10 mi
Weather by CustomWeather, © 2016

See weather overviewHow to use our weather pages